Location: St. Louis
(38.6270°N, 90.1994°W)
Time: 08:56:36
(UTC-06:00)

Transit 2A - Pass Details

Date: 01 December 2021
Orbit: 591 x 967 km, 66.7° (Epoch: 20 January)

Event Time Altitude Azimuth Distance (km) Brightness Sun altitude
Rises 09:47:00 0° 330° (NNW) 3,661 8.9 23.0°
Reaches altitude 10° 09:49:36 10° 330° (NNW) 2,708 8.3 23.2°
Maximum altitude 09:56:00 83° 244° (WSW) 952 6.9 23.8°
Drops below altitude 10° 10:02:03 10° 157° (SSE) 2,561 10.7 24.4°
Sets 10:04:27 0° 156° (SSE) 3,450 10.8 24.6°
